sat.trackr.live / text

‹ back to catalog

STARLINK-34752

NORAD 66153 · 2025-240H

PAYLOAD ACTIVE UNKNOWN

§ Identity

Operator
Country
US
Launch date
2025-10-25
Launch site
AFWTR
Launch vehicle
Mass (kg)
RCS (m²)

Purposes: comms

External: N2YO · Heavens-Above · Gunter

§ Orbital elements

Epoch: 2026-05-25T00:47:59.064864Z

Period
93.85 min
Inclination
53.1603°
Eccentricity
0.0001102
Mean motion
15.34398194 rev/d
Perigee alt
462.0 km
Apogee alt
463.5 km
Semi-major
6,840.8 km
B*
5.8580e-4
RAAN
67.7368°
Arg perigee
87.8768°
Mean anomaly
272.2361°
Rev number
3,368

§ Raw data

STARLINK-347521 66153U 25240H   26145.03332251  .00019466  00000+0  58580-3 0  99952 66153  53.1603  67.7368 0001102  87.8768 272.2361 15.34398194 33686

JSON: /api/v1/satellites/66153 · /tle

For live sub-satellite position, see the globe view (requires WebGL).

§ Visibility from observer

Set your observer location to see the next 7 days of passes ≥ 10°. The values pass through the URL so the page stays shareable.

No JS? Fill the form by hand. The geolocation button needs JavaScript.